Wind_Speed
23 24 23 23 23 22 22 22 22 22 22 22 21 21 20 19 19 19 18 18 17 16 16 16 15 14 13 12 11 11 11 10 9 9 9 10 11 12 13 14 13 13 12 10 9 7 6 5 5 4 4 5 6 7 6 5 5 6 9 13 16 18 17 16 15 13 13 12 12 11 11 11 11 11 12 12 12 12 12 12 10 9 8 8 8
24 25 24 24 23 22 22 23 23 22 23 22 22 22 21 20 19 19 18 17 16 16 16 16 15 14 13 12 12 11 11 11 10 9 9 10 11 13 14 14 14 14 13 11 9 8 7 6 5 4 5 6 7 7 7 6 5 7 9 13 16 18 17 17 15 14 13 13 12 12 11 11 11 11 11 11 12 12 12 12 10 9 9 8 7
25 25 24 24 23 23 23 23 23 23 23 23 23 22 22 20 19 19 18 17 16 16 16 16 15 14 13 12 12 12 12 11 11 10 10 11 12 13 15 15 15 15 13 12 11 9 8 7 6 5 5 7 8 8 8 7 6 7 10 12 15 17 18 17 16 15 14 13 13 12 12 12 11 11 11 11 11 12 12 12 11 10 9 8 8
26 25 24 24 23 23 23 23 23 23 23 23 24 23 23 21 20 19 18 18 16 16 16 16 15 14 13 13 12 12 12 12 12 12 11 11 12 14 15 16 16 16 15 13 12 10 9 8 7 6 6 8 9 9 9 8 7 8 10 12 15 17 18 18 17 16 15 14 14 13 12 12 12 11 11 11 11 12 12 12 11 10 10 9 8
26 25 25 24 23 23 23 23 23 23 23 24 24 24 24 22 20 19 19 18 17 17 17 16 15 14 13 13 13 12 12 12 13 13 13 12 13 14 16 17 17 17 16 14 13 11 10 10 8 7 7 9 10 10 10 9 8 8 10 13 15 17 19 18 18 17 16 15 14 14 13 13 13 12 12 11 11 11 12 12 11 10 10 9 8
25 24 25 23 23 23 24 24 23 24 24 25 25 25 24 23 21 20 20 18 17 17 17 16 15 14 13 13 13 13 13 13 13 13 14 13 13 14 16 17 17 17 17 16 14 13 12 11 10 9 9 10 11 12 11 10 9 9 11 13 15 18 19 19 18 17 16 16 15 15 14 13 13 13 12 12 11 12 12 12 12 11 10 10 9
25 24 24 22 23 23 24 24 23 24 24 25 25 25 25 24 23 21 20 18 17 17 16 16 16 15 14 14 13 13 13 13 14 14 14 14 14 14 15 17 18 18 18 17 16 15 13 12 11 10 10 11 12 13 13 12 10 10 11 14 16 18 18 19 18 18 17 16 15 15 14 14 13 13 13 13 12 12 12 12 12 12 11 10 10
27 25 24 24 24 24 24 23 23 23 24 26 26 26 25 25 24 22 21 18 17 16 16 16 16 16 15 14 14 14 13 13 13 14 14 15 15 15 15 16 17 18 18 18 17 16 15 14 13 12 11 12 13 14 14 14 12 11 12 14 16 17 18 18 19 18 17 16 16 15 15 14 14 14 13 13 13 13 13 13 12 12 11 11 10
28 27 26 26 26 26 25 24 24 24 25 26 26 26 25 25 24 23 21 18 17 17 16 16 16 16 16 15 14 14 13 12 12 13 14 15 16 16 16 15 16 17 19 20 19 18 16 15 14 14 13 13 14 15 16 15 14 12 12 14 16 18 18 19 20 20 18 17 16 16 15 14 14 14 14 14 14 14 13 13 13 12 12 11 11
29 29 28 27 26 26 26 25 25 25 25 25 26 26 25 25 23 22 21 18 17 18 18 17 17 17 16 16 15 14 13 12 12 12 13 15 16 17 17 17 17 17 18 20 20 19 17 15 15 15 14 14 16 16 17 16 15 13 13 14 16 18 20 20 21 21 20 18 16 16 15 15 14 14 14 14 14 14 14 14 13 13 12 12 11
29 29 28 27 27 27 27 26 26 25 25 25 25 25 25 24 23 22 21 19 18 19 18 18 18 17 17 16 15 14 13 13 12 11 11 13 15 17 18 19 18 18 18 18 20 21 19 16 16 16 16 16 16 17 18 18 16 15 13 14 16 19 20 21 21 21 20 19 17 17 16 15 14 14 14 14 15 15 15 14 14 13 13 12 11
29 29 28 28 28 28 28 27 27 25 25 25 25 25 25 24 23 23 21 19 19 19 19 18 18 18 17 16 15 15 14 13 12 12 11 12 13 16 18 19 20 20 20 19 19 20 21 19 17 17 17 17 17 18 19 19 18 16 14 14 16 19 21 21 21 21 21 20 18 17 16 16 15 14 14 15 15 16 16 15 14 14 13 12 11
30 30 29 28 28 29 28 27 27 26 26 26 26 25 24 24 23 22 21 20 19 19 19 19 19 18 17 16 16 15 15 14 13 12 12 13 14 15 17 18 20 21 22 21 20 19 20 21 20 19 18 17 19 19 20 20 19 17 15 15 16 19 21 22 21 21 21 21 19 17 17 17 17 16 15 15 16 16 16 15 15 14 14 13 12
31 31 30 29 29 28 27 27 27 27 27 27 27 26 25 23 22 21 20 19 19 19 19 20 19 18 17 16 16 16 15 15 14 13 13 13 14 15 16 17 19 21 22 22 21 20 20 21 22 21 20 18 20 21 21 21 21 19 17 16 17 19 22 23 23 22 22 22 20 18 18 18 18 17 17 16 16 16 16 16 15 15 14 13 13
31 31 30 29 29 27 26 26 26 27 27 27 27 26 25 23 21 20 18 18 18 19 20 20 20 19 17 17 16 16 16 16 15 14 13 13 14 15 16 17 18 20 21 20 20 21 21 21 22 24 23 20 20 22 22 23 22 21 19 17 17 19 22 23 24 23 22 22 21 20 19 19 19 19 18 16 15 15 15 15 15 15 14 13 13
31 31 30 29 28 26 26 25 25 25 25 25 25 24 24 24 22 19 18 17 18 19 19 20 20 19 18 18 17 16 16 16 16 15 14 13 13 14 16 17 18 20 20 20 20 20 21 22 23 24 25 22 20 23 24 24 24 22 21 19 18 19 21 23 23 23 23 22 22 21 20 20 20 20 18 16 15 15 14 14 14 14 14 13 13
31 31 30 29 28 26 26 26 26 25 24 23 23 24 24 23 22 20 19 18 19 19 19 20 20 20 19 18 17 17 17 17 17 16 14 13 13 15 16 17 18 19 20 20 20 20 21 23 24 25 26 24 21 23 25 24 25 24 22 20 19 20 22 23 24 24 23 22 22 22 21 21 21 20 19 17 17 16 15 15 15 15 14 14 13
31 30 29 28 27 26 26 26 26 25 23 23 23 24 23 22 21 21 21 19 18 18 19 21 21 20 19 18 18 17 17 18 17 16 15 14 14 15 17 17 17 18 19 20 20 21 22 23 25 25 26 26 22 22 25 26 25 25 23 21 20 20 22 24 25 25 25 24 23 21 21 21 21 21 20 19 18 18 17 17 16 16 15 14 14
30 29 28 28 27 26 26 26 26 24 23 23 23 23 22 22 22 23 22 20 19 19 20 21 21 20 19 19 18 19 18 18 17 16 15 14 15 15 17 17 17 18 18 19 21 21 22 23 24 25 26 27 24 23 25 27 27 26 24 21 20 21 23 24 25 26 27 26 24 21 22 22 21 21 20 20 20 19 19 18 18 16 15 15 14
28 28 28 27 27 26 26 26 26 25 25 25 24 23 22 21 22 22 22 21 20 19 20 21 21 19 20 19 19 20 19 17 17 16 15 15 15 16 17 17 17 17 18 19 20 21 22 23 24 25 25 26 26 25 25 28 28 28 26 22 21 21 23 24 26 27 27 27 25 22 23 23 22 22 21 21 21 21 20 19 18 17 16 15 14
28 27 27 27 26 25 25 25 26 25 26 25 25 24 23 22 22 22 21 21 21 20 20 21 21 19 19 19 20 20 18 17 16 16 16 16 16 16 16 17 17 17 18 19 20 21 22 23 23 24 24 24 26 26 26 29 30 29 27 25 22 22 22 24 25 27 28 28 26 25 25 24 23 22 21 22 22 22 21 20 19 17 16 15 14
27 26 26 26 26 26 25 25 26 25 24 24 24 25 24 22 22 21 21 21 21 21 19 20 21 20 20 20 20 19 18 17 15 16 16 16 15 15 15 16 17 17 18 18 19 20 21 22 23 23 23 20 23 27 28 29 31 30 28 26 24 22 22 23 26 27 29 28 27 27 27 25 24 23 22 22 22 23 22 21 20 18 17 16 15
26 25 25 25 26 26 25 25 25 25 24 24 25 26 25 23 22 21 22 22 22 21 20 20 20 21 21 20 18 17 18 18 16 16 15 15 14 14 15 16 17 18 18 18 18 19 20 22 23 22 23 20 20 27 30 30 31 31 29 28 26 23 21 22 25 27 28 27 27 28 27 26 25 24 24 23 23 23 23 22 20 19 17 16 15
26 25 25 24 24 24 24 24 24 25 25 25 25 26 25 24 22 22 22 22 22 22 21 20 19 21 21 18 17 16 15 16 15 14 13 14 15 15 15 16 17 18 18 18 18 19 20 22 23 22 21 18 18 25 30 29 31 32 31 30 27 24 22 22 23 25 27 26 27 28 28 27 26 25 25 25 24 24 23 22 21 19 18 17 16
26 24 24 23 22 21 22 22 23 25 26 26 25 25 25 24 23 23 23 21 22 22 21 20 19 20 20 18 17 15 14 14 13 11 11 14 15 15 15 16 17 17 18 18 19 19 20 21 22 22 20 18 16 21 28 28 30 33 32 31 29 26 24 23 23 24 26 25 27 29 29 28 27 27 26 26 25 24 23 22 21 20 19 17 16
25 23 22 22 20 20 21 22 23 24 25 26 27 26 25 24 25 25 23 22 23 22 21 21 21 20 19 18 16 15 14 12 11 10 11 13 13 14 15 15 16 17 18 18 19 20 20 21 21 22 21 19 16 19 25 28 30 32 33 30 29 27 24 22 23 24 24 25 28 29 30 30 29 29 28 27 27 26 25 24 23 22 21 19 18
23 22 21 21 20 20 21 22 23 23 24 25 27 26 25 26 27 25 23 23 24 22 20 20 20 18 16 16 16 16 16 14 13 11 12 13 12 13 14 15 15 15 16 16 17 19 20 22 22 22 21 20 18 18 22 27 31 33 33 31 29 26 23 23 23 23 23 24 27 29 30 31 31 30 29 29 28 28 27 26 25 25 23 22 21
22 20 20 20 21 21 22 22 22 23 23 24 25 24 25 27 28 26 24 23 24 22 20 21 20 17 16 17 18 18 17 15 15 14 14 15 14 14 14 17 17 15 15 15 16 18 19 21 21 21 22 21 20 19 19 23 29 33 33 32 30 28 26 25 23 23 23 24 27 29 30 31 32 32 31 30 30 30 29 28 27 26 25 24 23
21 20 20 21 21 21 22 22 22 23 24 25 25 25 26 27 28 26 25 24 23 22 22 22 21 19 20 20 19 19 18 16 16 16 16 17 16 16 17 18 17 15 15 15 15 16 18 20 21 21 21 21 20 19 18 20 26 31 33 32 31 30 28 27 25 24 23 23 25 27 29 31 32 32 32 32 31 31 30 29 28 27 26 25 24
21 21 21 21 22 21 22 22 22 23 24 24 24 25 25 26 27 26 25 25 25 24 23 23 22 22 22 19 19 19 19 18 17 18 18 18 18 18 19 19 16 15 16 16 15 15 17 19 20 21 21 22 21 19 19 20 24 29 33 34 33 31 30 30 28 26 25 24 24 25 27 30 31 32 32 32 32 31 31 30 29 28 27 26 25
22 22 22 22 22 22 22 21 21 22 22 22 22 22 23 24 25 25 25 25 26 26 25 25 25 24 23 21 20 21 20 20 20 20 20 20 20 20 20 21 18 17 17 16 16 15 17 19 20 21 21 23 22 20 19 20 23 27 33 35 35 33 32 32 30 29 27 26 25 25 27 29 30 30 31 31 32 32 32 31 30 29 28 27 25
23 23 22 22 22 21 21 20 20 21 21 21 20 20 21 21 22 24 25 25 26 27 26 26 27 25 25 23 22 22 21 22 22 21 21 21 22 22 22 23 21 19 18 17 16 16 16 16 18 20 21 23 24 23 21 21 22 25 31 35 37 37 35 34 33 32 30 28 27 26 27 28 29 29 30 31 31 32 32 32 31 30 29 28 27
24 24 23 22 22 21 20 20 20 21 21 20 20 20 20 20 22 23 24 26 27 27 27 28 28 26 25 25 24 23 23 23 24 23 23 23 23 24 24 24 23 21 20 19 18 16 14 13 15 18 21 22 24 26 25 23 22 23 28 33 37 39 39 37 36 34 32 30 29 27 27 28 28 28 29 29 31 32 33 33 32 32 31 30 29
24 24 24 24 23 21 19 19 20 20 21 21 21 21 21 21 22 24 24 25 27 28 28 29 29 27 25 25 26 25 24 25 26 26 25 25 25 24 25 25 25 24 22 21 20 18 16 15 15 16 20 23 24 26 28 27 25 25 26 29 34 39 40 40 39 37 34 33 31 29 28 29 29 29 28 29 30 31 32 32 32 32 31 30 29
25 25 25 25 24 23 21 20 19 20 21 21 22 22 22 22 23 25 25 26 27 28 28 29 29 27 26 27 26 26 25 25 27 27 27 25 24 24 24 25 25 25 24 23 22 20 19 19 18 18 20 23 25 27 28 29 28 28 28 28 32 36 40 42 41 40 37 36 34 31 30 29 29 29 29 29 29 30 30 31 31 31 30 30 29
26 26 26 25 25 24 23 22 21 20 21 21 22 23 23 24 24 25 26 26 27 28 28 29 28 27 28 27 26 26 26 26 27 27 27 24 23 23 24 25 25 26 25 24 23 22 21 21 20 20 21 23 26 28 29 29 28 29 29 29 31 34 38 42 43 42 41 39 35 33 32 30 29 29 29 29 29 29 30 30 30 30 29 28 28
25 26 26 26 26 25 24 23 22 21 21 21 22 23 24 25 25 26 26 27 28 29 29 29 29 28 28 27 26 26 26 26 26 26 26 24 24 24 24 24 25 26 25 25 24 23 22 22 22 23 23 23 25 26 28 29 29 30 30 30 32 34 37 40 43 44 43 41 37 35 34 33 31 30 29 29 29 29 29 29 29 29 28 28 27
24 24 25 26 26 26 25 23 23 22 22 22 23 24 25 25 26 27 27 27 28 29 29 29 30 29 28 27 26 25 25 24 25 25 25 24 23 24 24 24 25 25 25 25 25 24 23 23 24 24 24 24 24 24 26 28 29 30 30 31 32 35 37 39 41 43 44 43 40 38 36 35 34 32 31 30 29 28 28 28 28 28 28 28 27
23 23 24 26 26 26 25 24 23 22 22 23 25 25 26 26 27 28 28 27 27 28 29 30 30 29 28 28 26 25 25 25 25 26 24 23 23 23 24 24 24 25 26 26 25 25 24 24 24 24 25 25 24 24 25 26 27 28 30 31 31 33 36 38 39 40 42 43 42 41 39 37 36 35 35 33 31 29 28 27 27 27 27 27 27
23 23 25 26 27 27 26 25 24 23 24 24 25 26 27 27 28 28 28 27 27 28 29 30 30 30 29 28 27 26 26 26 26 26 25 24 24 24 24 24 25 25 26 26 26 25 24 24 24 25 26 26 25 25 26 26 27 28 29 29 30 30 31 35 37 39 40 41 43 43 41 40 40 38 37 35 33 31 29 28 27 27 27 27 27
23 24 25 26 27 28 27 26 25 25 26 25 25 25 27 28 28 29 29 28 27 27 29 30 30 30 30 29 27 27 27 27 27 27 26 25 25 25 25 24 25 25 26 26 25 25 23 23 25 26 27 27 27 26 26 27 27 27 28 27 29 29 28 32 36 39 40 39 39 43 44 44 42 39 38 37 36 34 33 31 29 29 29 28 28
24 25 25 26 27 28 27 26 25 25 26 26 25 24 25 27 28 28 28 28 28 28 28 29 30 31 30 30 29 28 28 28 28 28 27 27 27 26 26 25 25 26 26 25 23 23 24 25 26 26 26 27 27 26 27 28 27 27 29 29 29 29 29 30 35 38 40 39 37 39 43 44 44 42 40 39 38 37 36 35 33 31 31 30 29
25 25 25 26 27 27 28 26 24 24 24 25 25 24 23 24 25 26 27 28 28 29 29 29 30 31 31 31 31 30 30 30 29 29 29 29 28 28 27 26 26 26 27 26 24 25 25 25 25 25 25 26 27 29 30 29 28 27 28 29 28 28 27 27 32 37 40 40 38 37 39 42 44 44 43 42 41 40 39 38 36 34 33 33 32
25 25 26 27 28 29 29 28 25 24 24 25 26 25 23 23 24 25 25 26 27 28 30 30 31 32 32 32 32 31 31 31 30 30 30 29 29 29 28 27 27 27 27 27 26 26 26 25 25 26 26 26 28 31 31 30 29 27 27 27 26 25 22 20 24 31 36 38 39 40 41 42 43 44 44 43 43 42 41 40 39 37 36 35 35
24 25 27 28 30 31 31 30 28 26 25 25 26 26 24 24 25 25 25 25 26 27 28 30 31 31 32 32 32 31 31 30 30 30 30 29 29 29 28 28 28 28 28 28 27 27 27 27 27 28 27 28 29 31 31 30 31 29 28 28 27 25 22 18 18 22 29 35 39 42 42 40 41 44 44 43 43 43 42 42 41 41 40 39 38
25 27 28 30 32 32 33 33 31 29 28 26 26 27 26 26 26 26 26 26 26 26 27 28 29 29 30 30 30 30 30 30 29 29 29 29 29 29 29 29 28 29 29 29 28 28 28 28 28 28 28 28 29 30 29 29 31 31 30 30 29 27 25 22 19 18 22 28 35 40 41 40 41 44 45 43 44 43 43 43 41 41 43 43 42
28 30 30 31 33 33 34 35 34 32 30 28 27 27 26 27 27 26 26 26 26 26 26 27 28 29 29 30 30 29 29 28 28 28 28 28 28 29 29 29 29 29 29 29 29 29 28 28 28 28 29 28 29 29 28 28 30 31 30 30 29 28 26 23 19 17 18 20 25 33 38 40 42 44 45 45 45 44 43 42 38 37 41 45 45
30 32 32 33 34 34 36 37 36 34 31 29 29 29 27 26 28 27 26 27 27 26 26 27 27 28 28 29 29 28 28 27 27 26 26 26 26 27 28 28 29 29 28 29 28 28 28 27 27 28 28 28 28 29 29 29 30 30 30 30 29 28 27 23 19 16 17 16 17 21 27 34 39 42 44 46 47 46 46 44 40 37 39 44 45
32 32 33 34 35 36 36 37 37 35 32 30 30 29 27 27 27 26 26 27 27 26 26 27 27 27 27 28 27 26 26 25 25 25 24 24 24 25 26 26 27 28 27 28 28 28 28 27 27 27 27 27 26 28 28 29 29 30 30 30 30 30 28 26 23 20 19 19 19 20 21 25 31 37 42 45 46 46 45 45 45 41 37 41 44
32 33 33 35 37 37 35 36 38 36 31 29 30 29 28 27 26 25 25 26 26 26 26 26 27 27 26 26 25 25 24 24 23 23 23 23 23 23 23 24 25 26 26 27 27 27 28 27 26 26 27 26 25 26 27 28 28 28 29 30 30 31 30 30 29 28 28 26 25 24 24 23 25 30 37 43 45 46 47 45 45 42 36 36 39
34 35 35 36 38 39 37 37 38 35 31 29 30 29 28 27 25 24 24 24 25 25 25 25 25 25 25 24 24 23 22 22 22 22 22 22 22 22 22 22 23 24 25 25 26 26 26 26 25 25 26 25 24 25 25 26 27 27 27 28 29 30 30 30 31 32 31 29 26 25 25 25 25 26 30 36 40 43 46 47 46 45 41 37 37
Wind_Direction
254 256 260 263 266 268 271 274 276 276 276 277 277 277 278 282 287 290 292 294 297 297 296 294 294 294 294 292 288 286 284 279 272 262 254 248 239 234 229 225 223 223 221 222 224 221 225 245 250 235 216 203 195 194 190 185 183 189 194 192 191 187 183 180 179 184 183 178 171 164 159 153 148 148 150 151 149 146 143 140 136 132 127 121 115
254 255 258 261 265 268 271 274 275 276 276 277 276 276 277 281 286 289 292 295 298 298 297 294 293 293 292 290 287 285 282 279 272 262 252 245 238 232 229 226 223 223 223 223 224 221 221 236 242 229 212 205 202 200 197 190 186 189 194 194 193 190 185 182 181 185 184 180 175 169 163 158 154 154 156 157 155 150 147 143 140 138 133 127 122
254 255 258 261 264 267 271 274 275 276 276 276 275 275 276 279 283 287 291 294 298 298 297 294 292 291 290 288 285 283 280 278 272 263 249 240 237 232 230 229 225 223 224 225 225 221 221 230 236 228 212 204 204 204 204 198 191 190 194 195 195 192 188 185 183 186 185 181 178 173 168 163 160 159 161 162 160 155 151 147 144 143 138 133 128
254 255 259 261 264 267 271 273 275 275 275 275 274 275 275 278 281 285 289 292 296 297 296 293 291 288 287 285 282 280 278 275 270 264 251 237 234 231 229 231 229 225 224 225 225 223 221 228 233 228 214 205 204 205 209 206 198 194 196 196 195 193 190 187 186 187 186 183 182 178 173 168 165 164 165 167 165 160 155 151 148 147 143 138 135
255 257 260 262 264 267 270 272 274 274 275 274 274 274 275 276 278 282 286 291 294 296 296 293 291 287 285 282 280 277 274 270 267 262 254 239 231 231 230 232 232 229 226 226 225 224 222 228 233 228 218 207 204 205 209 211 206 200 199 198 196 195 193 189 188 188 187 185 184 182 178 174 170 168 168 170 170 164 159 155 152 151 147 143 140
256 258 262 264 266 270 272 274 276 276 276 274 273 273 274 275 276 279 283 289 294 296 296 293 290 285 282 279 277 273 270 267 264 259 254 243 231 230 233 235 236 234 231 229 228 225 222 228 233 231 222 210 205 205 208 211 211 207 203 200 197 198 196 191 189 189 190 188 187 185 183 179 174 171 171 171 172 168 163 160 156 154 151 149 145
257 260 263 265 268 273 275 277 278 277 275 273 272 272 273 274 275 277 281 288 293 295 294 292 289 284 280 277 274 271 268 264 260 254 251 245 235 231 234 238 238 239 236 233 232 230 224 225 232 233 226 215 207 205 207 210 213 213 208 202 198 199 199 194 191 191 191 190 190 189 187 183 178 174 173 173 173 171 167 165 162 158 156 154 151
260 260 261 266 271 275 277 280 280 278 276 273 272 271 272 273 275 277 280 286 291 292 292 291 287 283 279 275 272 269 265 260 254 250 248 245 240 236 237 240 241 241 240 237 235 234 230 225 230 233 228 219 210 206 207 209 211 214 212 204 200 199 198 196 193 192 193 192 190 191 191 187 181 176 176 174 173 173 171 170 167 163 160 159 155
260 260 264 269 274 277 279 281 282 280 277 273 271 270 271 273 275 276 279 284 288 288 288 288 285 282 278 275 272 268 263 256 250 246 245 244 243 241 240 242 244 244 243 240 238 237 235 230 230 233 230 221 213 209 208 210 210 213 215 206 201 199 197 198 194 193 194 194 191 190 191 190 185 179 177 176 175 175 175 175 173 168 165 163 159
261 264 268 272 276 279 281 283 283 280 277 274 272 271 271 273 275 276 279 281 283 284 284 284 283 280 277 275 273 268 260 253 248 245 243 244 245 245 243 242 243 245 245 243 241 239 238 235 232 233 230 222 215 211 210 211 211 212 216 209 204 200 198 199 197 195 194 193 192 190 190 191 189 183 179 178 177 176 178 178 177 174 169 167 162
264 268 270 273 277 280 283 283 282 279 276 275 274 272 272 274 275 275 278 279 279 280 280 281 281 278 275 274 272 265 257 251 246 244 244 246 248 249 248 244 242 243 246 247 245 241 239 237 234 234 231 224 218 214 211 212 212 212 215 212 208 203 200 200 199 198 196 194 193 191 188 188 190 187 182 179 179 178 180 181 182 179 174 171 167
267 269 272 274 277 279 281 280 279 278 276 276 276 275 274 275 275 275 276 277 276 277 277 278 280 278 275 273 269 262 256 250 244 243 244 248 251 253 253 251 247 244 245 248 248 245 240 238 235 235 232 226 221 217 213 212 213 212 214 214 210 206 203 201 201 201 198 196 194 191 188 186 187 188 186 182 182 181 182 183 185 183 178 176 172
267 270 273 275 277 278 278 277 277 277 277 277 277 277 277 277 275 275 275 275 274 275 275 277 279 278 274 271 265 258 253 249 244 243 246 250 252 255 256 257 255 250 246 246 249 248 243 239 236 235 233 226 220 218 214 213 213 213 213 213 211 207 205 202 202 202 200 199 195 192 190 189 187 187 189 186 186 185 184 185 187 187 183 180 178
268 271 274 276 276 276 275 275 276 277 279 279 279 280 279 278 276 276 276 276 274 275 276 278 278 276 272 267 261 255 250 247 244 245 249 252 254 255 256 258 260 258 252 247 247 249 247 241 239 236 232 226 219 217 215 213 212 214 214 213 212 209 206 203 203 202 201 200 196 192 193 192 189 188 191 191 189 188 187 186 189 189 186 184 182
268 271 274 276 276 277 275 275 277 278 279 280 281 281 281 279 278 278 278 276 275 275 275 275 274 272 269 263 259 252 248 246 245 247 250 253 255 256 256 258 261 261 257 251 247 249 249 244 241 238 234 227 220 216 214 213 212 213 214 214 214 210 208 206 205 204 202 201 198 195 195 194 192 193 193 192 191 190 190 189 190 190 187 186 185
268 269 272 275 277 277 278 278 279 279 279 280 281 281 280 279 279 280 279 275 274 275 274 272 269 268 265 261 257 251 247 246 246 249 252 256 257 256 256 258 259 259 257 254 249 247 249 247 242 241 237 229 221 218 214 213 213 214 214 214 214 212 209 208 206 205 206 204 201 198 197 196 195 196 194 192 192 191 191 191 193 191 188 187 187
268 270 272 274 277 277 279 281 281 280 279 280 282 280 279 279 280 281 279 276 274 275 273 269 265 263 261 259 255 250 247 246 247 249 253 259 260 258 258 259 258 256 255 253 250 246 246 247 245 242 240 231 221 219 216 213 214 214 216 216 214 213 210 208 206 205 206 206 205 202 201 200 198 198 195 193 195 193 191 193 194 193 190 187 188
269 271 273 274 276 277 279 280 280 280 278 279 281 280 279 278 280 280 279 277 274 273 270 267 262 258 256 254 251 249 248 249 250 251 255 260 261 259 258 259 257 254 252 251 249 247 245 246 247 245 243 234 221 219 219 214 213 214 217 219 216 214 211 208 207 206 206 206 206 205 205 203 201 201 197 196 199 198 194 194 196 195 193 189 188
270 272 274 274 275 277 279 278 279 279 278 279 278 278 276 277 279 278 277 276 273 270 268 266 261 254 251 249 248 248 248 250 251 253 256 258 260 260 260 259 256 251 248 249 248 248 246 246 247 247 246 239 223 215 220 216 212 212 214 220 221 218 214 210 208 207 207 206 202 204 209 206 204 203 200 200 201 203 200 198 198 196 195 191 189
271 273 273 273 275 278 279 278 279 279 280 278 275 275 273 273 276 275 276 275 272 269 267 267 265 256 249 247 247 248 249 250 252 254 256 257 259 260 262 261 255 249 244 246 248 249 250 249 248 247 248 245 230 216 217 219 213 211 211 215 223 223 218 213 210 209 209 208 200 203 212 210 208 206 203 203 204 206 206 203 201 198 197 194 191
270 272 273 274 277 280 280 279 280 278 279 277 272 271 269 270 273 273 274 273 271 269 266 264 263 257 250 247 247 249 251 252 253 254 256 257 258 258 262 262 256 250 245 245 248 250 252 253 252 250 250 250 242 224 215 219 215 211 210 210 218 223 222 218 213 211 212 210 203 203 210 211 211 209 206 206 207 208 209 208 205 202 201 199 196
268 271 275 277 279 281 282 282 280 277 275 272 267 267 269 272 273 275 275 273 272 269 266 260 257 257 252 248 248 251 252 253 256 256 257 258 257 257 257 257 255 251 246 244 246 249 251 253 253 253 255 254 251 235 217 217 216 211 210 210 214 220 222 222 217 213 213 210 207 207 209 211 213 211 210 209 210 211 211 211 209 206 204 204 202
268 271 275 279 281 281 282 282 281 278 276 271 270 273 275 275 275 275 274 273 272 268 265 260 256 255 252 249 250 250 251 253 257 256 256 262 261 257 256 254 253 251 248 244 242 245 246 249 249 251 254 252 251 238 218 211 215 212 211 212 212 217 219 222 222 218 216 212 211 212 211 212 213 213 213 212 213 213 213 213 213 211 209 209 209
269 273 276 279 280 280 280 279 279 277 276 273 273 275 275 276 275 273 272 269 267 266 265 261 258 255 253 251 250 249 249 249 253 254 255 260 259 256 254 249 248 249 251 249 245 246 247 249 252 253 254 252 249 238 221 209 211 212 212 213 213 215 216 219 223 223 220 214 213 215 214 214 215 215 215 215 216 216 215 215 215 216 215 215 215
272 275 276 277 276 276 276 275 274 273 272 272 271 272 272 274 273 271 271 266 262 263 263 261 257 255 252 249 247 248 249 247 249 254 254 255 256 257 255 248 245 248 251 253 253 253 253 253 257 260 259 256 251 241 229 215 210 213 214 213 213 214 215 217 219 223 222 217 216 216 215 216 217 218 218 217 217 218 217 215 217 218 218 220 222
273 275 275 275 275 276 275 274 272 270 270 271 270 268 269 269 269 268 267 264 260 258 258 256 253 251 251 251 248 248 251 254 257 259 258 261 262 260 262 255 245 246 249 252 256 258 258 259 261 264 263 258 251 244 235 222 212 214 216 215 216 217 216 218 218 222 223 219 220 219 217 218 218 220 221 220 219 218 218 216 217 218 219 220 223
273 275 274 274 276 276 275 273 271 269 268 270 270 268 270 271 270 267 261 261 260 257 257 255 254 255 254 250 246 247 250 254 262 264 262 266 270 265 265 261 253 254 257 257 260 261 260 262 263 265 265 259 252 248 241 229 215 212 215 216 218 221 221 222 221 222 223 220 222 222 221 220 220 220 222 222 221 220 219 218 218 219 219 221 222
276 277 276 276 276 275 273 271 270 267 265 264 265 265 267 270 273 273 270 266 262 259 261 260 262 262 253 246 246 249 252 251 257 262 260 261 265 265 260 260 262 266 268 267 266 265 263 264 264 263 263 260 254 250 248 238 222 211 212 215 217 220 223 226 226 225 225 222 222 223 223 223 222 221 222 223 223 222 221 220 220 221 221 222 224
280 281 282 280 278 275 271 269 267 264 263 261 260 257 257 262 268 274 275 271 266 262 262 261 261 259 251 247 247 250 252 252 253 256 257 256 257 259 257 259 266 269 270 272 270 267 265 266 266 265 262 259 256 252 248 243 230 216 212 215 217 219 223 227 228 228 228 226 225 225 225 226 226 224 223 224 224 224 223 222 222 222 223 224 225
281 285 285 282 277 272 268 267 265 261 261 262 261 257 253 255 260 264 267 267 266 263 260 259 258 259 256 251 249 252 253 251 251 251 253 254 254 256 258 261 266 268 268 270 270 269 267 264 264 264 260 258 258 254 247 239 233 224 216 215 217 220 223 226 228 229 229 229 228 226 227 228 228 227 225 225 225 225 225 225 225 225 225 226 227
283 286 284 281 276 272 268 264 261 258 260 263 262 259 256 255 256 258 259 260 261 259 256 256 257 259 260 256 252 253 253 252 252 253 254 255 256 257 260 263 264 263 265 267 270 274 272 263 257 257 257 256 256 254 250 241 235 230 223 217 217 220 224 226 228 229 229 230 229 227 227 228 228 228 227 227 226 226 226 226 226 227 228 229 230
284 285 282 280 276 272 267 260 254 254 258 262 262 260 259 257 256 256 255 254 253 252 250 250 250 251 253 254 253 252 253 254 255 258 257 255 258 259 261 264 265 265 266 267 270 275 276 266 254 252 253 254 254 252 251 247 241 235 229 223 220 219 222 226 228 229 229 230 230 229 229 229 229 228 227 227 227 227 227 227 228 228 229 230 231
283 284 282 278 275 271 265 257 250 251 255 261 263 263 261 259 258 256 254 252 249 247 246 245 245 245 245 248 251 252 253 255 257 260 259 257 259 261 261 264 266 266 266 267 268 270 272 270 263 255 250 251 251 252 251 249 246 242 236 231 226 223 222 224 227 229 230 231 232 231 230 231 231 230 229 228 228 228 228 229 230 230 230 231 232
283 283 282 277 275 272 268 261 254 254 256 258 261 262 261 259 258 258 256 253 250 247 245 244 245 246 244 244 247 250 252 256 259 262 263 260 260 261 261 263 264 265 265 264 265 265 263 266 270 264 254 250 250 252 252 250 249 248 244 239 234 230 227 225 226 228 230 231 232 232 232 232 232 232 231 230 230 230 230 231 232 232 232 232 233
283 283 281 278 277 275 274 270 264 261 260 261 261 261 260 258 257 258 258 256 253 249 247 245 245 246 246 245 246 249 252 258 261 265 266 264 262 261 261 262 262 263 263 262 263 262 260 262 267 267 259 252 249 250 252 253 253 252 251 249 243 237 233 230 227 227 229 231 231 232 234 234 234 233 233 232 231 231 232 233 234 234 234 233 234
286 284 280 277 277 277 278 277 275 271 268 266 264 263 262 261 259 257 257 256 255 252 249 247 246 245 246 248 250 254 256 258 261 264 266 266 266 264 262 261 261 262 261 261 262 261 262 263 265 266 262 254 250 248 250 253 254 253 254 252 246 241 237 234 231 228 229 230 229 230 234 236 238 236 234 234 234 234 234 235 236 236 235 234 234
286 282 278 276 276 279 280 280 279 276 273 271 268 266 265 263 262 260 258 256 255 253 250 248 247 247 249 251 253 257 259 259 261 264 266 268 267 266 263 261 261 261 261 261 262 263 263 264 265 265 262 259 254 250 250 251 251 252 254 252 248 245 241 236 233 231 230 231 230 230 232 235 238 240 238 236 235 234 235 236 237 237 237 236 236
284 282 278 276 277 279 280 280 279 278 276 274 272 270 268 266 264 263 261 257 254 252 249 247 247 248 251 254 258 261 262 262 263 265 266 268 267 266 265 263 262 262 263 263 263 266 266 266 266 265 263 263 260 256 254 251 250 251 252 252 250 250 246 238 235 235 233 232 230 229 231 233 236 239 240 239 237 235 234 235 237 237 238 238 237
283 283 280 279 279 279 280 279 278 277 276 276 275 274 272 269 265 264 264 260 255 251 249 247 247 249 251 255 260 264 265 265 267 268 268 269 268 267 265 264 264 263 263 263 263 265 268 268 267 266 265 263 260 260 259 254 253 253 253 252 252 253 250 241 235 236 237 234 232 230 230 232 234 235 238 240 240 238 236 235 236 237 237 237 237
280 280 279 279 279 279 279 279 279 277 276 275 275 275 274 273 269 267 267 264 259 253 250 248 249 252 254 256 258 262 265 266 267 269 270 270 269 268 266 265 265 265 265 266 266 264 265 269 268 266 265 262 260 260 258 256 256 256 257 258 257 256 255 247 237 235 237 237 235 233 230 232 233 234 237 239 241 241 241 238 238 238 238 237 237
277 277 277 279 279 280 280 280 280 278 277 276 274 273 273 273 272 270 269 268 263 257 253 251 252 254 257 259 260 262 266 267 268 268 269 270 268 268 268 267 267 267 267 267 266 263 264 270 269 266 265 264 262 258 257 259 259 257 258 260 259 257 256 252 243 238 238 239 238 235 233 232 233 234 235 238 240 241 242 242 240 240 241 240 239
276 277 278 280 281 282 281 280 281 280 280 279 276 274 271 271 271 270 269 269 267 263 258 256 256 258 260 263 265 267 268 269 269 268 269 269 268 267 267 267 267 267 269 269 266 263 264 266 263 264 265 262 258 256 261 264 261 259 258 258 259 258 257 251 245 242 241 242 242 236 235 235 233 233 235 236 238 240 242 242 241 241 242 243 243
277 278 281 282 283 284 282 281 282 283 284 283 281 278 273 271 271 270 269 268 267 266 264 262 262 262 264 266 267 268 268 268 268 267 267 267 267 267 266 267 266 267 269 271 270 266 265 262 259 261 262 258 256 258 263 264 262 262 261 259 260 262 261 253 244 242 242 243 241 236 234 234 234 234 235 236 238 239 241 242 242 241 242 243 244
280 282 283 284 284 285 284 284 285 286 286 286 285 282 277 274 272 271 269 267 267 266 265 265 264 265 265 266 267 267 267 266 266 266 266 266 267 268 268 268 267 267 268 269 269 268 267 265 262 261 259 256 257 258 260 261 262 264 264 263 264 264 264 259 246 240 240 241 239 237 236 234 235 236 236 237 238 239 241 243 244 245 244 244 245
281 282 283 283 284 286 286 287 288 289 289 288 286 284 281 277 274 272 269 267 265 264 264 264 264 264 265 265 265 266 266 266 265 265 265 266 266 268 269 269 269 269 270 270 270 269 268 266 263 261 259 256 255 256 258 259 260 263 264 264 265 263 262 264 257 243 239 239 238 239 240 238 236 238 237 237 239 240 242 243 245 246 247 246 246
279 278 279 280 282 284 286 287 288 290 291 290 287 284 282 278 275 272 270 268 266 264 263 263 263 263 263 264 264 265 265 265 265 265 265 266 266 267 268 269 270 270 271 272 272 272 270 268 265 263 260 257 256 256 257 259 259 260 261 262 264 265 265 268 267 253 241 238 238 240 244 242 238 238 238 238 239 240 241 242 245 247 248 248 248
274 274 275 277 279 282 284 286 288 290 291 292 288 284 280 276 274 271 269 268 267 266 265 264 264 263 263 263 263 263 263 263 263 264 265 266 266 267 267 268 269 270 271 272 272 273 272 270 268 266 263 260 258 257 256 258 259 259 259 262 264 266 268 269 267 263 252 242 239 240 242 243 242 242 241 239 239 240 240 241 242 245 247 247 247
268 271 273 275 277 279 281 284 287 289 291 291 288 284 280 274 271 269 267 267 268 267 267 266 265 265 263 263 262 263 263 263 263 264 266 267 267 267 267 268 269 270 271 271 272 272 272 271 268 267 266 264 262 260 257 256 257 259 259 261 262 264 265 265 266 264 256 252 252 248 243 242 244 245 243 241 240 241 241 240 239 241 244 247 247
262 266 270 273 275 276 279 282 285 288 290 289 286 283 280 274 270 267 265 266 266 266 265 265 264 264 263 263 263 264 265 266 266 266 267 267 267 268 268 269 270 271 271 271 271 271 271 269 268 266 266 264 263 262 261 259 258 258 258 259 260 261 260 261 264 261 259 268 274 271 261 251 246 246 244 242 241 241 241 240 240 241 242 245 246
258 260 265 269 272 274 276 277 280 285 287 288 286 281 279 275 271 268 266 265 265 264 263 263 262 262 262 263 264 265 266 267 268 268 268 267 267 268 268 270 271 272 272 272 271 270 270 269 267 266 265 264 263 262 262 262 261 259 258 258 258 259 259 260 262 263 268 276 278 276 274 268 259 251 245 243 243 241 240 239 237 238 239 243 243
256 258 261 265 269 272 273 272 276 280 281 284 284 279 277 276 272 270 268 266 266 265 263 263 262 262 262 263 265 266 267 268 269 269 269 268 268 267 268 269 271 272 272 272 271 270 269 268 267 266 265 265 263 262 262 263 264 263 261 261 261 261 261 261 263 266 271 274 274 273 273 273 272 264 251 245 245 243 243 242 239 238 241 247 251
Height
5848 5847 5847 5847 5847 5847 5847 5847 5847 5846 5846 5846 5846 5846 5846 5846 5846 5845 5845 5844 5843 5843 5842 5841 5841 5841 5840 5840 5840 5840 5840 5840 5840 5840 5839 5839 5839 5838 5838 5838 5838 5839 5839 5840 5840 5840 5840 5840 5840 5840 5840 5841 5841 5842 5842 5842 5843 5844 5845 5846 5847 5848 5849 5850 5851 5852 5852 5852 5853 5853 5853 5854 5854 5854 5854 5854 5854 5854 5855 5855 5855 5855 5855 5855 5855
5846 5845 5846 5846 5846 5846 5846 5846 5845 5845 5845 5845 5845 5845 5845 5845 5844 5844 5844 5843 5842 5841 5841 5840 5839 5839 5839 5838 5839 5839 5839 5838 5838 5838 5838 5838 5838 5837 5837 5837 5837 5838 5838 5839 5839 5839 5839 5839 5839 5839 5840 5840 5841 5841 5841 5842 5842 5843 5844 5845 5847 5848 5849 5850 5851 5851 5852 5852 5852 5853 5853 5853 5854 5854 5854 5854 5854 5855 5855 5855 5855 5855 5856 5856 5856
5844 5844 5844 5844 5845 5845 5845 5845 5845 5844 5844 5844 5844 5843 5843 5843 5843 5843 5842 5842 5841 5840 5839 5839 5838 5838 5837 5837 5837 5837 5837 5837 5837 5837 5837 5837 5837 5836 5836 5836 5837 5837 5837 5838 5838 5838 5838 5838 5838 5838 5839 5839 5840 5840 5841 5842 5842 5843 5843 5845 5846 5848 5849 5850 5850 5851 5852 5852 5852 5852 5853 5853 5853 5854 5854 5854 5855 5855 5855 5855 5855 5855 5856 5856 5856
5842 5842 5843 5843 5843 5844 5844 5844 5844 5843 5843 5843 5842 5842 5842 5842 5842 5842 5841 5840 5840 5839 5838 5837 5837 5836 5836 5836 5836 5836 5836 5835 5835 5835 5835 5836 5836 5835 5835 5835 5836 5836 5836 5836 5837 5838 5838 5837 5837 5837 5838 5838 5839 5840 5840 5841 5841 5842 5843 5844 5845 5847 5848 5849 5850 5851 5851 5852 5852 5852 5852 5853 5853 5854 5854 5854 5855 5855 5855 5855 5855 5856 5856 5856 5856
5840 5841 5841 5842 5842 5842 5843 5843 5843 5842 5842 5841 5841 5841 5841 5841 5841 5840 5840 5839 5838 5838 5837 5836 5836 5835 5835 5835 5834 5834 5834 5834 5833 5833 5834 5834 5834 5834 5834 5834 5834 5835 5835 5835 5836 5837 5837 5837 5836 5836 5836 5837 5838 5839 5839 5840 5841 5841 5842 5843 5844 5846 5847 5848 5849 5850 5851 5851 5852 5852 5852 5852 5853 5853 5854 5854 5855 5855 5855 5855 5856 5856 5856 5856 5857
5838 5839 5840 5840 5841 5841 5842 5841 5841 5841 5841 5840 5840 5840 5840 5840 5839 5839 5838 5838 5837 5837 5836 5835 5834 5834 5834 5833 5833 5833 5833 5832 5832 5832 5832 5833 5833 5833 5833 5833 5833 5834 5834 5834 5835 5835 5836 5836 5836 5836 5835 5836 5837 5838 5839 5839 5840 5841 5841 5842 5844 5845 5846 5847 5849 5850 5851 5851 5851 5851 5852 5852 5853 5853 5854 5854 5855 5855 5855 5855 5856 5856 5856 5856 5857
5837 5838 5838 5838 5839 5840 5840 5840 5840 5840 5839 5839 5839 5838 5838 5838 5838 5837 5837 5837 5836 5836 5835 5834 5833 5833 5832 5832 5832 5831 5831 5831 5831 5831 5830 5831 5832 5832 5832 5832 5832 5832 5833 5833 5834 5834 5835 5835 5835 5835 5835 5835 5836 5836 5837 5838 5839 5840 5841 5841 5843 5844 5845 5847 5848 5849 5850 5851 5852 5851 5852 5852 5853 5853 5854 5854 5855 5855 5855 5855 5856 5856 5856 5857 5857
5836 5836 5836 5837 5837 5838 5838 5838 5838 5838 5838 5837 5837 5837 5836 5836 5836 5836 5836 5835 5835 5834 5833 5833 5832 5832 5831 5831 5830 5830 5830 5830 5829 5829 5829 5829 5830 5830 5831 5831 5831 5831 5831 5832 5832 5833 5834 5834 5834 5834 5834 5834 5835 5835 5836 5837 5838 5839 5840 5841 5842 5843 5845 5846 5847 5849 5850 5851 5851 5852 5852 5852 5853 5853 5853 5854 5855 5855 5855 5855 5855 5856 5856 5857 5857
5834 5834 5835 5835 5835 5836 5836 5837 5837 5836 5836 5835 5835 5835 5834 5834 5834 5834 5834 5834 5833 5833 5832 5831 5831 5830 5830 5830 5829 5829 5829 5828 5828 5828 5828 5828 5828 5829 5829 5830 5830 5830 5830 5830 5831 5832 5832 5833 5833 5833 5833 5833 5834 5834 5835 5836 5837 5838 5839 5840 5841 5842 5844 5845 5846 5848 5849 5850 5851 5852 5852 5852 5853 5853 5853 5854 5854 5855 5855 5855 5855 5856 5856 5857 5857
5832 5833 5834 5834 5834 5834 5834 5835 5834 5834 5834 5833 5833 5833 5833 5832 5833 5832 5832 5832 5831 5831 5830 5830 5829 5829 5829 5828 5828 5828 5828 5827 5827 5827 5827 5826 5827 5827 5828 5829 5828 5828 5828 5829 5829 5830 5831 5832 5832 5832 5832 5832 5833 5833 5834 5835 5836 5837 5838 5839 5840 5841 5843 5844 5845 5846 5848 5849 5851 5851 5852 5852 5853 5853 5853 5854 5854 5855 5855 5855 5855 5856 5856 5857 5857
5831 5831 5831 5832 5832 5832 5832 5832 5832 5832 5832 5831 5831 5831 5831 5830 5831 5830 5830 5830 5829 5829 5829 5828 5828 5827 5827 5827 5826 5826 5826 5826 5826 5825 5825 5825 5825 5826 5826 5827 5827 5827 5827 5827 5828 5828 5829 5830 5831 5832 5831 5831 5832 5832 5833 5834 5835 5836 5837 5838 5839 5840 5841 5843 5844 5846 5847 5848 5850 5851 5851 5852 5852 5853 5853 5854 5854 5854 5855 5855 5855 5856 5856 5857 5857
5829 5828 5829 5830 5830 5830 5830 5830 5830 5830 5830 5829 5829 5829 5828 5828 5828 5828 5828 5827 5827 5827 5827 5827 5826 5826 5826 5826 5825 5825 5824 5824 5824 5824 5824 5824 5825 5825 5825 5825 5825 5826 5826 5826 5826 5827 5828 5829 5830 5831 5830 5830 5831 5831 5832 5833 5834 5835 5836 5837 5838 5839 5840 5842 5843 5845 5846 5847 5849 5850 5851 5852 5852 5853 5853 5853 5853 5854 5855 5855 5856 5856 5856 5857 5857
5827 5826 5827 5827 5827 5828 5828 5828 5828 5828 5827 5827 5826 5826 5826 5826 5826 5826 5826 5825 5825 5825 5825 5825 5825 5825 5824 5824 5824 5823 5823 5823 5823 5823 5823 5824 5824 5824 5823 5823 5823 5824 5824 5825 5825 5825 5826 5827 5828 5829 5830 5829 5829 5830 5831 5832 5833 5834 5835 5836 5837 5838 5839 5841 5842 5843 5845 5846 5848 5849 5850 5851 5851 5852 5852 5853 5853 5854 5854 5855 5856 5856 5856 5857 5857
5825 5824 5824 5825 5825 5826 5826 5826 5826 5826 5825 5825 5824 5824 5824 5824 5824 5824 5824 5824 5824 5824 5824 5823 5823 5823 5823 5823 5822 5822 5821 5821 5822 5822 5822 5822 5823 5822 5822 5821 5821 5821 5822 5823 5824 5824 5825 5826 5827 5827 5828 5828 5828 5828 5829 5830 5832 5832 5834 5835 5835 5836 5838 5839 5840 5842 5844 5845 5846 5848 5849 5850 5851 5851 5852 5852 5853 5854 5854 5855 5855 5856 5856 5857 5857
5823 5822 5822 5822 5823 5824 5824 5824 5824 5824 5823 5822 5822 5822 5821 5822 5822 5822 5822 5822 5822 5822 5822 5822 5821 5821 5821 5821 5820 5820 5820 5820 5820 5820 5821 5821 5821 5821 5821 5820 5820 5820 5820 5821 5822 5823 5823 5824 5825 5826 5826 5827 5828 5827 5828 5829 5830 5831 5832 5833 5834 5835 5837 5838 5839 5841 5843 5844 5845 5846 5848 5849 5850 5850 5851 5852 5853 5854 5854 5855 5855 5856 5856 5857 5857
5821 5820 5820 5821 5821 5822 5822 5822 5822 5822 5821 5821 5820 5819 5819 5819 5820 5820 5820 5820 5820 5820 5820 5820 5819 5819 5819 5819 5819 5819 5818 5818 5819 5819 5819 5819 5820 5819 5819 5819 5818 5818 5818 5819 5820 5821 5821 5822 5823 5824 5824 5826 5827 5826 5826 5827 5829 5830 5831 5832 5833 5834 5835 5837 5838 5840 5842 5843 5844 5845 5847 5848 5849 5850 5851 5852 5852 5853 5854 5855 5855 5855 5856 5856 5857
5818 5818 5819 5819 5819 5819 5819 5819 5820 5819 5819 5819 5818 5817 5817 5818 5818 5818 5818 5818 5818 5818 5818 5818 5817 5817 5817 5817 5817 5817 5817 5817 5817 5818 5818 5818 5818 5818 5817 5817 5817 5817 5817 5817 5818 5819 5820 5820 5821 5822 5823 5824 5825 5825 5825 5826 5827 5829 5830 5830 5832 5833 5834 5835 5837 5838 5840 5842 5843 5844 5846 5847 5848 5849 5850 5851 5851 5852 5853 5854 5854 5855 5855 5856 5856
5816 5816 5816 5816 5816 5817 5817 5817 5817 5817 5817 5817 5816 5815 5815 5816 5816 5816 5816 5817 5817 5817 5816 5816 5815 5815 5815 5815 5815 5815 5815 5815 5816 5816 5817 5817 5817 5816 5816 5815 5816 5815 5816 5816 5816 5817 5818 5819 5819 5820 5821 5822 5823 5824 5824 5825 5826 5827 5829 5830 5830 5831 5832 5833 5835 5837 5838 5840 5841 5843 5845 5846 5847 5848 5849 5850 5850 5851 5852 5852 5853 5854 5854 5855 5855
5813 5814 5814 5814 5814 5814 5814 5814 5814 5814 5815 5815 5814 5814 5814 5814 5814 5814 5815 5815 5815 5815 5814 5813 5813 5814 5814 5814 5814 5814 5813 5814 5814 5815 5815 5815 5815 5814 5814 5814 5814 5814 5814 5814 5815 5816 5817 5817 5818 5818 5819 5820 5821 5822 5823 5823 5824 5826 5827 5829 5829 5830 5831 5832 5833 5835 5836 5837 5840 5842 5843 5844 5846 5847 5848 5849 5849 5850 5851 5852 5852 5853 5854 5854 5855
5811 5811 5812 5812 5812 5811 5812 5812 5812 5812 5812 5812 5812 5812 5812 5812 5812 5813 5813 5813 5812 5812 5812 5811 5811 5813 5813 5813 5813 5812 5811 5812 5812 5813 5813 5813 5813 5812 5812 5812 5812 5813 5813 5813 5813 5814 5815 5815 5816 5817 5817 5819 5819 5820 5821 5822 5823 5824 5825 5827 5828 5829 5829 5830 5831 5833 5835 5836 5839 5841 5841 5843 5844 5846 5847 5847 5848 5849 5850 5851 5851 5852 5853 5854 5854
5809 5809 5809 5809 5810 5809 5809 5810 5810 5810 5810 5810 5809 5810 5810 5810 5810 5811 5810 5810 5810 5810 5811 5810 5809 5810 5811 5811 5811 5810 5809 5810 5810 5811 5811 5811 5811 5811 5811 5811 5811 5811 5811 5811 5812 5812 5813 5813 5814 5815 5816 5817 5818 5818 5819 5820 5821 5823 5824 5825 5826 5827 5828 5829 5830 5831 5833 5835 5837 5838 5839 5841 5842 5844 5846 5846 5847 5848 5849 5850 5851 5852 5852 5853 5854
5806 5807 5807 5807 5807 5807 5806 5807 5808 5808 5808 5808 5808 5807 5807 5807 5807 5808 5808 5807 5807 5808 5809 5808 5807 5807 5808 5809 5809 5808 5808 5808 5808 5809 5809 5809 5810 5810 5809 5809 5809 5810 5810 5810 5810 5811 5811 5812 5812 5813 5813 5815 5816 5816 5817 5819 5820 5822 5823 5823 5824 5825 5826 5828 5828 5829 5830 5833 5836 5836 5837 5839 5841 5843 5844 5845 5846 5847 5848 5849 5850 5851 5851 5852 5853
5804 5805 5806 5805 5805 5805 5804 5805 5805 5805 5805 5805 5805 5803 5803 5803 5804 5805 5805 5804 5805 5806 5807 5806 5806 5806 5806 5806 5806 5807 5807 5806 5807 5807 5807 5808 5808 5808 5808 5808 5808 5808 5808 5809 5809 5809 5810 5811 5811 5811 5811 5812 5813 5814 5814 5816 5818 5820 5821 5821 5822 5823 5825 5826 5827 5828 5829 5832 5834 5835 5836 5838 5839 5841 5842 5844 5845 5846 5847 5849 5850 5850 5851 5851 5852
5802 5803 5803 5803 5803 5803 5803 5803 5803 5803 5802 5802 5802 5801 5800 5801 5802 5803 5803 5803 5803 5804 5804 5804 5804 5804 5804 5804 5804 5804 5805 5805 5806 5806 5806 5807 5807 5807 5807 5807 5807 5807 5807 5808 5808 5808 5808 5809 5809 5810 5810 5811 5812 5812 5813 5813 5815 5818 5819 5819 5821 5822 5823 5824 5825 5827 5828 5831 5832 5833 5835 5836 5837 5839 5840 5842 5843 5845 5846 5848 5849 5850 5850 5851 5851
5800 5801 5801 5801 5801 5802 5801 5801 5801 5801 5800 5800 5800 5799 5799 5800 5800 5800 5801 5802 5802 5802 5802 5802 5802 5802 5802 5803 5802 5802 5803 5803 5803 5804 5805 5805 5805 5805 5805 5805 5806 5806 5806 5807 5807 5807 5807 5807 5808 5809 5809 5810 5810 5811 5812 5812 5814 5816 5817 5818 5820 5820 5821 5822 5823 5825 5826 5829 5830 5831 5833 5834 5836 5837 5839 5840 5842 5843 5845 5846 5848 5849 5850 5850 5851
5798 5798 5798 5799 5799 5799 5800 5799 5799 5799 5798 5797 5798 5798 5799 5799 5799 5799 5800 5800 5801 5801 5801 5801 5800 5800 5800 5800 5801 5801 5800 5800 5800 5801 5802 5801 5803 5804 5803 5803 5804 5805 5805 5806 5806 5806 5806 5806 5807 5808 5808 5809 5809 5809 5810 5811 5812 5814 5816 5817 5819 5819 5820 5821 5822 5823 5824 5827 5828 5829 5831 5832 5834 5836 5837 5839 5840 5841 5843 5844 5845 5847 5848 5849 5850
5796 5796 5796 5797 5797 5797 5798 5797 5797 5798 5797 5796 5795 5796 5797 5796 5795 5797 5798 5798 5798 5799 5799 5799 5797 5796 5797 5798 5799 5799 5798 5799 5798 5799 5800 5799 5801 5803 5802 5801 5802 5803 5803 5803 5804 5804 5805 5805 5806 5807 5807 5807 5808 5808 5808 5809 5810 5812 5814 5816 5818 5819 5820 5820 5820 5821 5823 5825 5826 5827 5829 5830 5832 5834 5835 5837 5838 5839 5840 5842 5843 5844 5846 5847 5848
5793 5794 5794 5795 5795 5795 5795 5795 5796 5796 5796 5795 5794 5794 5794 5792 5791 5792 5794 5795 5795 5795 5796 5796 5793 5793 5796 5796 5797 5797 5797 5798 5798 5799 5800 5799 5800 5801 5802 5801 5800 5800 5800 5801 5802 5803 5804 5803 5804 5805 5806 5806 5806 5807 5807 5807 5808 5809 5812 5814 5816 5817 5818 5819 5819 5820 5821 5823 5824 5825 5827 5829 5830 5832 5833 5835 5836 5837 5839 5840 5841 5842 5843 5845 5846
5791 5791 5792 5792 5792 5793 5793 5793 5794 5794 5794 5794 5794 5794 5792 5791 5789 5788 5790 5791 5792 5792 5793 5793 5792 5793 5794 5794 5795 5795 5795 5796 5798 5799 5799 5799 5800 5800 5801 5800 5799 5800 5800 5800 5801 5802 5802 5802 5802 5803 5804 5804 5805 5806 5806 5806 5807 5808 5809 5811 5813 5815 5816 5817 5818 5818 5819 5820 5822 5823 5825 5827 5829 5830 5831 5833 5834 5835 5837 5838 5839 5840 5841 5843 5844
5788 5789 5789 5789 5789 5790 5790 5790 5791 5791 5791 5791 5792 5792 5792 5791 5789 5788 5789 5789 5789 5789 5791 5792 5791 5791 5790 5791 5793 5793 5794 5795 5796 5797 5797 5798 5799 5799 5799 5799 5799 5800 5800 5800 5800 5800 5801 5801 5801 5801 5802 5802 5803 5804 5804 5805 5806 5806 5807 5809 5811 5812 5814 5815 5816 5817 5817 5818 5819 5821 5823 5825 5827 5828 5829 5831 5832 5833 5835 5836 5837 5839 5840 5841 5842
5785 5786 5786 5786 5786 5787 5787 5787 5788 5788 5788 5789 5789 5790 5790 5790 5789 5789 5789 5789 5788 5788 5791 5791 5789 5789 5788 5789 5791 5792 5793 5793 5794 5796 5796 5796 5797 5798 5798 5798 5798 5799 5799 5799 5799 5799 5799 5800 5800 5799 5800 5800 5801 5802 5803 5803 5804 5805 5806 5807 5808 5810 5812 5813 5814 5815 5815 5816 5817 5819 5820 5822 5824 5826 5827 5828 5830 5831 5832 5834 5835 5836 5838 5839 5840
5783 5783 5783 5784 5784 5784 5784 5784 5785 5785 5786 5786 5787 5787 5788 5788 5788 5787 5787 5788 5788 5788 5790 5791 5789 5789 5788 5788 5790 5791 5791 5791 5792 5794 5794 5794 5795 5795 5795 5796 5796 5797 5797 5797 5798 5798 5797 5798 5798 5798 5798 5799 5799 5800 5801 5802 5802 5803 5804 5805 5806 5807 5808 5810 5811 5812 5813 5814 5815 5816 5818 5820 5821 5823 5824 5826 5827 5829 5830 5831 5833 5834 5835 5837 5838
5781 5781 5781 5781 5781 5781 5782 5782 5783 5783 5784 5784 5784 5785 5785 5786 5785 5785 5785 5785 5786 5787 5788 5789 5788 5788 5788 5788 5789 5790 5790 5790 5790 5792 5792 5792 5793 5793 5793 5794 5794 5795 5795 5795 5796 5796 5796 5796 5797 5797 5797 5797 5797 5797 5798 5800 5801 5801 5802 5803 5803 5804 5805 5806 5808 5809 5810 5811 5812 5814 5815 5817 5818 5820 5821 5823 5825 5826 5827 5829 5830 5831 5833 5834 5835
5778 5778 5778 5778 5779 5779 5779 5780 5780 5781 5782 5782 5782 5783 5783 5783 5783 5783 5783 5783 5784 5785 5786 5787 5786 5786 5787 5787 5788 5788 5789 5788 5788 5789 5790 5790 5791 5790 5791 5791 5792 5792 5793 5793 5794 5794 5795 5795 5795 5796 5796 5795 5795 5795 5795 5796 5798 5799 5800 5801 5801 5802 5803 5804 5805 5807 5808 5809 5810 5811 5813 5814 5816 5817 5819 5820 5822 5823 5825 5826 5828 5829 5830 5831 5833
5776 5776 5776 5776 5776 5777 5777 5778 5778 5779 5779 5780 5780 5781 5781 5781 5781 5781 5781 5782 5782 5783 5784 5784 5784 5785 5785 5786 5786 5787 5787 5787 5787 5787 5787 5788 5788 5788 5788 5789 5790 5790 5791 5791 5792 5792 5793 5793 5794 5794 5794 5794 5794 5793 5793 5793 5795 5797 5798 5799 5799 5800 5801 5802 5803 5804 5805 5806 5807 5809 5810 5812 5813 5814 5816 5817 5819 5820 5822 5823 5825 5827 5828 5829 5830
5774 5774 5773 5774 5774 5774 5775 5776 5776 5777 5777 5778 5778 5778 5779 5779 5779 5779 5779 5780 5780 5781 5781 5781 5782 5783 5783 5783 5784 5785 5785 5786 5785 5785 5784 5785 5785 5786 5786 5787 5787 5788 5789 5789 5790 5790 5791 5791 5792 5792 5792 5792 5792 5791 5791 5792 5794 5794 5795 5796 5796 5797 5799 5799 5800 5801 5802 5803 5804 5806 5808 5809 5811 5812 5813 5814 5816 5817 5819 5821 5822 5824 5826 5827 5828
5771 5771 5771 5771 5771 5772 5773 5774 5774 5775 5775 5775 5775 5776 5776 5776 5777 5777 5777 5778 5778 5778 5779 5779 5780 5781 5781 5782 5783 5783 5783 5783 5783 5783 5782 5783 5783 5784 5784 5784 5785 5786 5786 5787 5787 5788 5789 5789 5789 5789 5789 5789 5789 5789 5789 5790 5791 5792 5792 5793 5793 5794 5795 5796 5797 5799 5799 5801 5802 5804 5805 5807 5808 5810 5811 5812 5813 5815 5816 5818 5820 5821 5823 5824 5825
5769 5769 5768 5769 5769 5770 5771 5772 5772 5773 5773 5773 5773 5773 5773 5774 5774 5774 5775 5775 5776 5776 5776 5777 5777 5778 5779 5780 5781 5781 5781 5781 5781 5780 5781 5781 5781 5782 5782 5782 5783 5783 5784 5784 5785 5786 5786 5787 5787 5787 5787 5786 5785 5785 5786 5787 5788 5789 5790 5790 5791 5791 5791 5792 5794 5795 5797 5798 5800 5801 5802 5804 5805 5807 5808 5809 5811 5812 5814 5815 5817 5818 5820 5821 5822
5766 5767 5766 5766 5767 5768 5768 5770 5770 5771 5771 5771 5771 5771 5771 5771 5771 5771 5772 5772 5773 5773 5774 5775 5775 5776 5777 5777 5778 5778 5778 5778 5778 5778 5778 5779 5779 5779 5780 5780 5780 5780 5781 5781 5782 5783 5784 5784 5784 5784 5785 5785 5784 5783 5783 5784 5785 5786 5786 5787 5788 5788 5787 5788 5791 5792 5794 5796 5797 5798 5800 5801 5802 5803 5805 5806 5808 5809 5811 5812 5814 5815 5817 5818 5819
5764 5765 5764 5764 5765 5765 5766 5767 5768 5769 5769 5769 5769 5768 5768 5768 5768 5769 5769 5770 5770 5771 5771 5772 5773 5773 5774 5775 5775 5775 5775 5775 5775 5775 5775 5776 5777 5777 5777 5778 5778 5778 5778 5778 5780 5780 5781 5781 5782 5782 5782 5783 5782 5782 5781 5782 5782 5783 5783 5784 5784 5785 5784 5785 5787 5789 5790 5792 5793 5795 5797 5797 5798 5800 5802 5804 5805 5807 5808 5810 5811 5812 5813 5815 5816
5763 5763 5762 5762 5762 5763 5763 5764 5766 5766 5766 5767 5767 5767 5766 5766 5766 5766 5766 5767 5767 5768 5769 5770 5770 5771 5771 5772 5772 5772 5772 5772 5773 5773 5773 5774 5774 5774 5775 5776 5776 5775 5775 5777 5778 5778 5778 5778 5778 5779 5779 5780 5779 5779 5779 5779 5780 5780 5780 5781 5781 5782 5782 5783 5784 5785 5786 5788 5789 5791 5793 5794 5795 5797 5799 5801 5802 5804 5805 5807 5808 5809 5810 5812 5813
5760 5761 5761 5761 5761 5761 5761 5762 5763 5763 5763 5764 5764 5764 5765 5764 5763 5763 5764 5764 5764 5765 5766 5767 5767 5768 5768 5769 5769 5770 5770 5770 5770 5770 5771 5771 5772 5772 5773 5773 5774 5773 5772 5774 5775 5775 5775 5775 5775 5776 5777 5777 5776 5776 5776 5776 5777 5778 5778 5778 5778 5779 5779 5780 5780 5781 5782 5784 5785 5787 5789 5790 5792 5794 5796 5797 5799 5800 5802 5803 5805 5806 5807 5809 5810
5758 5758 5759 5758 5759 5758 5758 5759 5760 5761 5760 5760 5761 5761 5762 5762 5761 5761 5761 5761 5762 5762 5763 5764 5764 5765 5765 5766 5766 5767 5767 5768 5768 5768 5768 5768 5768 5769 5770 5770 5771 5771 5771 5771 5772 5772 5772 5772 5772 5773 5774 5774 5774 5773 5773 5773 5774 5775 5775 5775 5775 5775 5776 5776 5776 5777 5778 5780 5782 5784 5784 5785 5787 5790 5792 5794 5795 5797 5799 5800 5802 5804 5805 5806 5807
5756 5756 5756 5756 5756 5755 5755 5756 5757 5758 5758 5758 5758 5758 5759 5760 5759 5759 5759 5759 5759 5760 5760 5761 5761 5762 5762 5763 5763 5764 5764 5765 5765 5765 5766 5766 5766 5766 5767 5768 5768 5768 5768 5769 5769 5770 5769 5769 5770 5770 5771 5772 5772 5770 5770 5770 5771 5772 5772 5772 5772 5773 5773 5773 5773 5773 5775 5777 5778 5779 5779 5781 5784 5786 5788 5791 5792 5794 5796 5797 5799 5801 5802 5803 5804
5754 5754 5753 5753 5753 5753 5752 5753 5754 5755 5755 5755 5755 5755 5756 5757 5757 5757 5756 5756 5757 5757 5758 5758 5758 5759 5759 5760 5760 5761 5761 5762 5762 5763 5763 5763 5763 5763 5764 5764 5765 5765 5765 5766 5766 5767 5767 5767 5767 5767 5768 5769 5768 5767 5766 5767 5768 5768 5769 5769 5770 5770 5770 5770 5770 5770 5771 5773 5774 5775 5776 5778 5781 5782 5784 5787 5789 5791 5792 5794 5796 5798 5799 5800 5801
5752 5751 5751 5751 5750 5750 5750 5750 5751 5752 5752 5753 5753 5753 5753 5754 5754 5754 5754 5754 5754 5755 5755 5755 5756 5756 5756 5757 5757 5758 5758 5759 5759 5760 5760 5760 5760 5761 5761 5761 5761 5762 5762 5762 5763 5763 5764 5764 5764 5764 5765 5765 5765 5764 5764 5765 5765 5766 5766 5766 5767 5767 5767 5767 5767 5767 5768 5769 5771 5772 5773 5775 5777 5777 5780 5783 5785 5787 5789 5790 5792 5794 5795 5796 5797
5749 5749 5749 5748 5748 5748 5748 5747 5748 5749 5750 5750 5750 5750 5751 5751 5751 5751 5751 5751 5752 5752 5752 5753 5753 5753 5754 5754 5754 5755 5755 5756 5756 5757 5757 5757 5757 5758 5758 5758 5758 5759 5759 5759 5759 5760 5760 5760 5761 5761 5761 5761 5761 5761 5762 5762 5762 5762 5763 5764 5764 5764 5764 5765 5765 5765 5765 5766 5767 5768 5769 5771 5772 5774 5776 5778 5780 5783 5784 5786 5787 5788 5790 5791 5792
5747 5746 5746 5746 5746 5745 5745 5744 5745 5746 5747 5748 5747 5747 5748 5748 5748 5749 5749 5749 5749 5750 5750 5750 5751 5751 5751 5751 5751 5752 5752 5753 5754 5754 5754 5754 5754 5754 5755 5755 5755 5755 5755 5756 5756 5756 5756 5757 5757 5757 5758 5758 5758 5758 5759 5760 5759 5760 5760 5761 5761 5761 5762 5763 5763 5762 5762 5763 5765 5766 5767 5768 5768 5770 5772 5774 5775 5778 5779 5780 5782 5783 5784 5785 5787
5745 5745 5744 5744 5743 5743 5743 5742 5742 5744 5745 5745 5745 5745 5745 5745 5746 5746 5746 5747 5747 5747 5747 5748 5748 5748 5749 5749 5749 5749 5750 5750 5751 5751 5751 5752 5752 5752 5752 5752 5752 5752 5752 5752 5753 5753 5753 5753 5754 5754 5754 5755 5755 5755 5756 5757 5757 5758 5758 5758 5759 5759 5759 5760 5760 5760 5760 5761 5763 5763 5764 5765 5766 5766 5768 5769 5771 5772 5774 5776 5777 5779 5779 5779 5782
5743 5743 5743 5742 5740 5740 5742 5741 5740 5741 5742 5742 5742 5742 5742 5742 5743 5743 5744 5744 5745 5745 5745 5745 5746 5746 5746 5747 5747 5747 5747 5748 5748 5748 5749 5749 5749 5749 5749 5749 5749 5749 5749 5750 5750 5750 5750 5750 5751 5751 5751 5752 5752 5753 5753 5754 5754 5755 5756 5756 5756 5756 5757 5757 5758 5758 5758 5759 5761 5761 5762 5762 5763 5763 5764 5765 5766 5768 5769 5770 5772 5774 5775 5775 5777
5741 5741 5741 5740 5738 5738 5739 5739 5738 5739 5740 5740 5740 5740 5740 5740 5740 5741 5741 5742 5742 5743 5743 5743 5744 5744 5744 5745 5745 5745 5746 5746 5746 5746 5746 5746 5747 5747 5747 5747 5747 5747 5747 5747 5747 5748 5748 5747 5748 5748 5748 5749 5749 5750 5750 5751 5751 5752 5752 5753 5753 5753 5754 5755 5755 5755 5755 5757 5758 5759 5759 5760 5760 5760 5761 5761 5762 5763 5764 5766 5768 5769 5770 5771 5772